QPF
0.00 0.00 0.00 0.00 0.00 0.00 0.00 0.00 0.00 0.00 0.00 0.00 0.00 0.00 0.00 0.00 0.00 0.00 0.00 0.00 0.00 0.00 0.00 0.00 0.00 0.00 0.00 0.00 0.00 0.00 0.00 0.00 0.00 0.00 0.00 0.00 0.00 0.00 0.00 0.00 0.00 0.00 0.00 0.00 0.00
0.00 0.00 0.00 0.00 0.00 0.00 0.00 0.00 0.00 0.00 0.00 0.00 0.00 0.00 0.00 0.00 0.00 0.00 0.00 0.00 0.00 0.00 0.00 0.00 0.00 0.00 0.00 0.00 0.00 0.00 0.00 0.00 0.00 0.00 0.00 0.00 0.00 0.00 0.00 0.00 0.00 0.00 0.00 0.00 0.00
0.00 0.00 0.00 0.00 0.00 0.00 0.00 0.00 0.00 0.00 0.00 0.00 0.00 0.00 0.00 0.00 0.00 0.00 0.00 0.00 0.00 0.00 0.00 0.00 0.00 0.00 0.00 0.00 0.00 0.00 0.00 0.00 0.00 0.00 0.00 0.00 0.00 0.00 0.00 0.00 0.00 0.00 0.00 0.00 0.00
0.00 0.00 0.00 0.00 0.00 0.00 0.00 0.00 0.00 0.00 0.00 0.00 0.00 0.00 0.00 0.00 0.00 0.00 0.00 0.00 0.00 0.00 0.00 0.00 0.00 0.00 0.00 0.00 0.00 0.00 0.00 0.00 0.00 0.00 0.00 0.00 0.00 0.00 0.00 0.00 0.00 0.00 0.00 0.00 0.00
0.00 0.00 0.00 0.00 0.00 0.00 0.00 0.00 0.00 0.00 0.00 0.00 0.00 0.00 0.00 0.00 0.00 0.00 0.00 0.00 0.00 0.00 0.00 0.00 0.00 0.00 0.00 0.00 0.00 0.00 0.00 0.00 0.00 0.00 0.00 0.00 0.00 0.00 0.00 0.00 0.00 0.00 0.00 0.00 0.00
0.00 0.00 0.00 0.00 0.00 0.00 0.00 0.00 0.00 0.00 0.00 0.00 0.00 0.00 0.00 0.00 0.00 0.00 0.00 0.00 0.00 0.00 0.00 0.00 0.00 0.00 0.00 0.00 0.00 0.00 0.00 0.00 0.00 0.00 0.00 0.00 0.00 0.00 0.00 0.00 0.00 0.00 0.00 0.00 0.00
0.00 0.00 0.00 0.00 0.00 0.00 0.00 0.00 0.00 0.00 0.00 0.00 0.00 0.00 0.00 0.00 0.00 0.00 0.00 0.00 0.00 0.00 0.00 0.00 0.00 0.00 0.00 0.00 0.00 0.00 0.00 0.00 0.00 0.00 0.00 0.00 0.00 0.00 0.01 0.01 0.00 0.00 0.00 0.00 0.00
0.00 0.00 0.00 0.00 0.00 0.00 0.00 0.00 0.00 0.00 0.00 0.00 0.00 0.00 0.00 0.00 0.00 0.00 0.00 0.00 0.00 0.00 0.00 0.00 0.00 0.00 0.00 0.00 0.00 0.00 0.00 0.00 0.00 0.00 0.00 0.00 0.00 0.00 0.01 0.01 0.00 0.00 0.00 0.00 0.00
0.00 0.00 0.00 0.00 0.00 0.00 0.00 0.00 0.00 0.00 0.00 0.00 0.00 0.00 0.00 0.00 0.00 0.00 0.00 0.00 0.00 0.00 0.00 0.00 0.00 0.00 0.00 0.00 0.00 0.00 0.00 0.00 0.00 0.00 0.00 0.00 0.00 0.00 0.00 0.00 0.00 0.00 0.00 0.00 0.00
0.00 0.00 0.00 0.00 0.00 0.00 0.00 0.00 0.00 0.00 0.00 0.00 0.00 0.00 0.00 0.00 0.00 0.00 0.00 0.00 0.00 0.00 0.00 0.00 0.00 0.00 0.00 0.00 0.00 0.00 0.00 0.00 0.00 0.00 0.00 0.00 0.00 0.00 0.00 0.00 0.00 0.00 0.00 0.00 0.00
0.00 0.00 0.00 0.00 0.00 0.00 0.00 0.00 0.00 0.00 0.00 0.00 0.00 0.00 0.00 0.00 0.00 0.00 0.00 0.00 0.00 0.00 0.00 0.00 0.00 0.00 0.00 0.00 0.00 0.00 0.00 0.00 0.00 0.00 0.00 0.00 0.00 0.00 0.00 0.00 0.00 0.00 0.00 0.00 0.00
0.00 0.00 0.00 0.00 0.00 0.00 0.00 0.00 0.00 0.00 0.00 0.00 0.00 0.00 0.00 0.00 0.00 0.00 0.00 0.00 0.00 0.00 0.00 0.00 0.00 0.00 0.00 0.00 0.00 0.00 0.00 0.00 0.00 0.00 0.00 0.00 0.00 0.00 0.00 0.00 0.00 0.00 0.00 0.00 0.00
0.00 0.00 0.00 0.00 0.00 0.00 0.00 0.00 0.00 0.00 0.00 0.00 0.00 0.00 0.00 0.00 0.00 0.00 0.00 0.00 0.00 0.00 0.00 0.00 0.00 0.00 0.00 0.00 0.00 0.00 0.00 0.00 0.00 0.00 0.00 0.00 0.00 0.00 0.00 0.00 0.00 0.00 0.00 0.00 0.00
0.00 0.00 0.00 0.00 0.00 0.00 0.00 0.00 0.00 0.00 0.00 0.00 0.00 0.00 0.00 0.00 0.00 0.00 0.00 0.00 0.00 0.00 0.00 0.00 0.00 0.00 0.00 0.00 0.00 0.00 0.00 0.00 0.00 0.00 0.00 0.00 0.00 0.00 0.00 0.00 0.00 0.00 0.00 0.00 0.00
0.00 0.00 0.00 0.00 0.00 0.00 0.00 0.00 0.00 0.00 0.00 0.00 0.00 0.00 0.00 0.00 0.00 0.00 0.00 0.00 0.00 0.00 0.00 0.00 0.00 0.00 0.00 0.00 0.00 0.00 0.00 0.00 0.00 0.00 0.00 0.00 0.00 0.00 0.00 0.00 0.00 0.00 0.00 0.00 0.00
0.00 0.00 0.00 0.00 0.00 0.00 0.00 0.00 0.00 0.00 0.00 0.00 0.00 0.00 0.00 0.00 0.00 0.00 0.00 0.00 0.00 0.00 0.00 0.00 0.00 0.00 0.00 0.00 0.00 0.00 0.00 0.00 0.00 0.00 0.00 0.00 0.00 0.00 0.00 0.00 0.00 0.00 0.00 0.00 0.00
0.00 0.00 0.00 0.00 0.00 0.00 0.00 0.00 0.00 0.00 0.00 0.00 0.00 0.00 0.00 0.00 0.00 0.00 0.00 0.00 0.00 0.00 0.00 0.00 0.00 0.00 0.00 0.00 0.00 0.00 0.00 0.00 0.00 0.00 0.00 0.00 0.00 0.00 0.00 0.00 0.00 0.00 0.00 0.00 0.00
0.00 0.00 0.00 0.00 0.00 0.00 0.00 0.00 0.00 0.00 0.00 0.00 0.00 0.00 0.00 0.00 0.00 0.00 0.00 0.00 0.00 0.00 0.00 0.00 0.00 0.00 0.00 0.00 0.00 0.00 0.00 0.00 0.00 0.00 0.00 0.00 0.00 0.00 0.00 0.00 0.00 0.00 0.00 0.00 0.00
0.00 0.00 0.00 0.00 0.00 0.00 0.00 0.00 0.00 0.00 0.00 0.00 0.00 0.00 0.00 0.00 0.00 0.00 0.00 0.00 0.00 0.00 0.00 0.00 0.00 0.00 0.00 0.00 0.00 0.00 0.00 0.00 0.00 0.00 0.00 0.00 0.00 0.00 0.00 0.00 0.00 0.00 0.00 0.00 0.00
0.00 0.00 0.00 0.00 0.00 0.00 0.00 0.00 0.00 0.00 0.00 0.00 0.00 0.00 0.00 0.00 0.00 0.00 0.00 0.00 0.00 0.00 0.00 0.00 0.00 0.00 0.00 0.00 0.00 0.00 0.00 0.00 0.00 0.00 0.00 0.00 0.00 0.00 0.00 0.00 0.00 0.00 0.00 0.00 0.00
0.00 0.00 0.00 0.00 0.00 0.00 0.00 0.00 0.00 0.00 0.00 0.00 0.00 0.00 0.00 0.00 0.00 0.00 0.00 0.00 0.00 0.00 0.00 0.00 0.00 0.00 0.00 0.00 0.00 0.00 0.00 0.00 0.00 0.00 0.00 0.00 0.00 0.00 0.00 0.00 0.00 0.00 0.00 0.00 0.00
0.01 0.00 0.01 0.00 0.00 0.00 0.00 0.00 0.00 0.00 0.00 0.00 0.00 0.00 0.00 0.00 0.00 0.00 0.00 0.00 0.00 0.00 0.00 0.00 0.00 0.00 0.00 0.00 0.00 0.00 0.00 0.00 0.00 0.00 0.00 0.00 0.00 0.00 0.01 0.00 0.00 0.00 0.00 0.00 0.00
0.00 0.02 0.01 0.00 0.00 0.00 0.00 0.00 0.00 0.00 0.00 0.00 0.00 0.00 0.00 0.00 0.00 0.00 0.00 0.00 0.00 0.00 0.00 0.00 0.00 0.00 0.00 0.00 0.00 0.00 0.00 0.00 0.00 0.00 0.00 0.00 0.01 0.02 0.01 0.00 0.00 0.00 0.00 0.00 0.00
0.02 0.03 0.01 0.01 0.00 0.00 0.00 0.00 0.00 0.00 0.00 0.00 0.00 0.00 0.00 0.00 0.00 0.00 0.00 0.00 0.00 0.00 0.00 0.00 0.00 0.00 0.00 0.00 0.00 0.00 0.00 0.00 0.00 0.00 0.00 0.00 0.00 0.00 0.01 0.00 0.00 0.00 0.00 0.00 0.00
0.05 0.06 0.04 0.05 0.01 0.00 0.00 0.00 0.00 0.00 0.00 0.00 0.00 0.00 0.00 0.00 0.00 0.00 0.00 0.00 0.00 0.00 0.00 0.00 0.00 0.00 0.00 0.00 0.00 0.00 0.00 0.00 0.00 0.00 0.00 0.00 0.00 0.00 0.01 0.01 0.00 0.00 0.00 0.00 0.00
0.03 0.09 0.05 0.04 0.02 0.00 0.00 0.00 0.00 0.00 0.00 0.00 0.00 0.00 0.00 0.00 0.00 0.00 0.00 0.00 0.00 0.00 0.00 0.00 0.00 0.00 0.00 0.00 0.00 0.00 0.00 0.00 0.00 0.00 0.00 0.00 0.01 0.01 0.00 0.01 0.01 0.00 0.00 0.01 0.00
0.02 0.02 0.03 0.02 0.03 0.00 0.00 0.00 0.00 0.00 0.00 0.00 0.00 0.00 0.00 0.00 0.00 0.00 0.00 0.00 0.00 0.00 0.00 0.00 0.00 0.00 0.00 0.00 0.00 0.00 0.00 0.00 0.00 0.00 0.00 0.01 0.01 0.01 0.00 0.01 0.01 0.00 0.00 0.00 0.00
MSLP
1019.05 1018.81 1018.42 1018.03 1017.58 1017.13 1016.59 1015.93 1015.47 1015.20 1014.90 1014.19 1013.63 1013.24 1012.88 1012.35 1011.80 1011.64 1010.37 1007.60 1007.71 1007.90 1008.32 1008.70 1009.15 1009.03 1009.20 1009.20 1008.92 1009.08 1010.03 1010.32 1009.85 1009.09 1007.90 1006.84 1007.44 1006.65 1006.43 1007.11 1007.66 1008.01 1008.25 1008.93 1010.09
1019.09 1018.75 1018.42 1017.92 1017.39 1017.07 1016.48 1015.89 1015.33 1015.00 1014.64 1014.15 1013.73 1013.07 1012.76 1012.38 1011.87 1010.25 1007.03 1006.86 1007.25 1007.71 1008.29 1008.53 1008.95 1008.98 1009.16 1008.84 1008.59 1008.93 1009.56 1008.94 1008.20 1007.63 1007.30 1006.40 1007.19 1005.94 1006.80 1007.64 1007.97 1008.25 1008.66 1009.35 1010.02
1018.83 1018.53 1018.24 1017.83 1017.37 1016.89 1016.30 1015.80 1015.16 1014.91 1014.43 1013.95 1013.75 1012.99 1012.65 1012.37 1011.40 1007.85 1006.41 1006.77 1007.04 1007.46 1007.75 1008.10 1008.53 1008.86 1009.03 1008.63 1008.20 1008.25 1008.12 1007.45 1006.68 1006.63 1006.01 1005.72 1006.43 1005.74 1006.61 1007.49 1007.40 1007.94 1008.74 1009.50 1010.08
1018.51 1018.36 1017.98 1017.55 1017.30 1016.81 1016.21 1015.63 1014.98 1014.67 1014.27 1013.92 1013.47 1012.89 1012.49 1012.31 1010.27 1006.72 1006.51 1006.79 1007.18 1007.52 1007.85 1007.82 1008.24 1008.71 1008.72 1008.56 1007.83 1007.92 1007.15 1007.11 1005.90 1005.26 1004.93 1005.10 1005.76 1006.05 1005.95 1006.43 1007.24 1007.89 1008.25 1009.27 1009.98
1018.61 1018.34 1017.98 1017.47 1017.11 1016.72 1016.03 1015.33 1014.71 1014.31 1014.16 1013.77 1013.41 1012.94 1012.32 1011.74 1009.04 1006.48 1006.70 1006.90 1007.25 1007.50 1007.68 1007.85 1008.01 1008.08 1008.22 1007.93 1007.65 1007.39 1006.90 1006.47 1005.64 1004.75 1004.64 1004.41 1004.94 1005.64 1006.50 1006.83 1007.81 1008.46 1008.90 1009.37 1009.96
1018.63 1018.50 1018.05 1017.57 1017.11 1016.56 1015.91 1015.21 1014.38 1014.00 1013.69 1013.43 1013.17 1013.11 1012.64 1010.99 1006.82 1006.47 1006.75 1007.05 1007.10 1007.34 1007.36 1007.63 1007.32 1007.29 1007.42 1007.48 1007.50 1006.73 1006.30 1005.83 1005.07 1004.31 1004.22 1004.28 1005.18 1005.47 1007.59 1007.45 1008.20 1008.73 1009.12 1009.40 1009.75
1018.13 1017.86 1017.62 1017.32 1016.93 1016.48 1015.66 1014.93 1014.04 1013.54 1013.20 1012.69 1012.83 1012.81 1011.92 1008.68 1006.47 1006.68 1006.90 1006.80 1006.61 1006.82 1006.83 1006.77 1006.90 1007.33 1007.14 1007.27 1006.63 1006.58 1006.36 1005.41 1004.42 1003.85 1003.74 1004.50 1005.96 1006.22 1006.68 1007.22 1008.17 1008.52 1008.76 1009.30 1009.55
1018.37 1018.07 1017.36 1017.08 1016.80 1016.24 1015.51 1014.74 1013.49 1012.50 1012.44 1011.82 1012.26 1012.23 1010.52 1006.69 1006.46 1006.79 1006.78 1006.48 1006.26 1006.33 1006.39 1006.06 1006.56 1007.04 1007.04 1006.84 1006.86 1007.00 1006.76 1006.27 1004.36 1004.05 1003.45 1004.51 1006.33 1006.49 1006.26 1006.60 1007.50 1008.13 1008.18 1008.52 1008.97
1017.71 1017.39 1017.08 1016.76 1016.54 1016.03 1015.22 1014.11 1012.40 1011.88 1011.80 1011.64 1012.00 1011.55 1009.10 1006.27 1006.33 1005.49 1006.12 1005.95 1005.94 1006.12 1006.13 1005.90 1006.30 1006.68 1006.81 1007.44 1007.88 1007.80 1007.32 1006.56 1005.12 1003.90 1004.17 1004.75 1006.57 1006.54 1006.37 1006.77 1007.56 1007.65 1007.55 1007.54 1008.22
1017.38 1017.25 1017.14 1016.87 1016.56 1015.93 1015.13 1013.39 1010.95 1011.45 1011.41 1011.48 1011.05 1011.06 1008.09 1006.13 1005.31 1005.19 1005.32 1005.59 1005.89 1006.04 1006.41 1006.29 1006.74 1007.26 1007.74 1008.19 1008.44 1008.16 1007.60 1006.58 1005.75 1004.08 1004.38 1005.09 1005.86 1006.48 1006.85 1006.71 1006.78 1007.28 1007.42 1007.28 1007.52
1017.09 1016.96 1016.70 1016.53 1016.39 1016.14 1015.41 1013.99 1011.78 1011.25 1010.70 1010.67 1010.11 1009.41 1007.14 1006.21 1005.11 1004.89 1004.94 1005.40 1005.81 1006.21 1006.75 1006.88 1007.61 1007.66 1007.78 1007.91 1007.88 1007.81 1007.60 1007.00 1005.66 1004.89 1005.03 1004.86 1004.93 1005.79 1006.28 1006.55 1006.59 1006.50 1006.58 1006.27 1006.34
1016.66 1016.64 1016.60 1016.37 1016.09 1015.77 1016.02 1015.08 1012.40 1011.56 1010.25 1008.97 1008.28 1007.78 1006.32 1006.77 1006.31 1004.65 1004.21 1005.40 1005.83 1006.59 1007.05 1007.69 1007.42 1007.04 1007.35 1007.41 1007.64 1007.64 1007.45 1006.67 1005.64 1004.94 1005.20 1004.61 1004.92 1005.42 1005.81 1005.35 1005.22 1004.97 1004.93 1005.12 1005.51
1016.30 1016.32 1016.30 1016.13 1015.60 1015.15 1014.87 1012.98 1011.06 1011.43 1010.92 1007.29 1006.50 1006.06 1005.14 1005.77 1005.34 1004.45 1004.22 1004.83 1005.75 1006.69 1007.14 1007.29 1006.54 1006.37 1007.12 1007.05 1007.25 1007.04 1007.15 1006.40 1005.86 1005.01 1004.71 1004.76 1005.81 1006.41 1006.27 1005.74 1005.42 1004.83 1004.01 1004.04 1004.01
1016.05 1016.14 1016.18 1016.01 1015.69 1015.24 1013.72 1012.16 1011.55 1010.94 1010.69 1007.18 1005.14 1003.84 1004.08 1004.50 1004.56 1003.80 1003.80 1004.52 1005.67 1006.22 1006.82 1006.89 1005.81 1006.20 1006.27 1006.27 1006.34 1006.44 1005.40 1005.57 1005.62 1005.56 1005.74 1005.44 1006.58 1006.47 1006.22 1005.51 1005.32 1004.57 1004.09 1003.52 1003.02
1015.80 1016.00 1016.17 1016.34 1016.05 1015.06 1013.04 1012.12 1011.34 1010.80 1010.05 1004.92 1003.63 1002.04 1002.50 1003.72 1003.58 1002.89 1002.96 1003.96 1005.02 1005.51 1006.38 1005.75 1005.21 1005.23 1005.33 1004.69 1004.94 1004.95 1004.60 1005.17 1005.40 1006.18 1006.61 1006.47 1006.73 1005.59 1005.85 1006.03 1005.21 1004.37 1003.64 1002.79 1002.41
1015.52 1015.79 1016.07 1016.00 1015.88 1014.71 1013.46 1012.23 1011.58 1011.73 1008.84 1004.21 1002.60 1002.51 1002.89 1003.35 1003.20 1002.93 1003.29 1003.81 1004.12 1005.30 1005.71 1005.32 1004.79 1004.76 1003.87 1003.46 1003.60 1003.78 1004.62 1005.63 1006.63 1007.45 1007.84 1007.17 1007.12 1006.12 1005.10 1003.88 1003.39 1002.96 1002.91 1002.43 1002.33
1015.20 1015.56 1015.86 1015.51 1014.62 1014.21 1013.43 1013.12 1012.67 1010.74 1006.63 1003.81 1002.54 1002.26 1002.52 1003.11 1003.42 1003.55 1003.81 1004.12 1004.56 1005.44 1005.70 1005.00 1004.39 1003.34 1002.68 1003.00 1003.13 1004.05 1006.00 1007.36 1008.46 1008.66 1008.64 1007.44 1006.93 1005.58 1004.49 1003.39 1002.55 1001.71 1002.08 1002.04 1002.31
1014.78 1015.19 1015.08 1014.50 1014.73 1014.78 1014.43 1013.76 1012.17 1008.66 1006.32 1003.84 1002.74 1002.58 1002.64 1002.79 1003.30 1003.63 1004.00 1004.46 1004.55 1004.99 1005.68 1005.23 1004.05 1002.87 1002.33 1002.69 1003.43 1004.61 1006.10 1007.79 1008.93 1009.66 1009.08 1007.53 1006.96 1006.00 1005.53 1004.05 1003.56 1003.88 1004.80 1005.34 1006.07
1014.60 1014.90 1014.80 1013.31 1014.54 1015.23 1015.23 1013.48 1010.42 1007.90 1005.61 1004.56 1002.89 1002.84 1002.75 1002.56 1002.74 1003.54 1003.83 1003.99 1003.95 1004.45 1005.29 1004.96 1004.00 1002.87 1002.40 1002.42 1003.29 1004.71 1005.96 1006.64 1008.42 1009.66 1009.67 1008.56 1007.48 1005.92 1006.07 1005.43 1005.58 1005.94 1006.32 1007.25 1007.49
1014.30 1014.31 1012.98 1012.82 1013.48 1014.45 1014.58 1012.22 1009.42 1007.07 1005.73 1004.92 1003.96 1002.30 1002.39 1002.29 1002.74 1002.94 1003.21 1002.89 1003.16 1003.37 1003.86 1004.74 1004.70 1003.13 1002.14 1002.06 1003.30 1003.99 1005.26 1007.17 1008.91 1010.02 1010.32 1009.30 1009.15 1009.37 1008.42 1008.33 1008.55 1008.13 1008.78 1009.08 1008.49
1013.92 1013.61 1011.31 1011.67 1012.88 1013.68 1013.05 1011.25 1008.50 1006.63 1006.46 1005.29 1004.25 1003.52 1002.46 1002.17 1002.12 1002.31 1002.38 1002.08 1002.07 1002.64 1003.60 1004.44 1004.90 1004.24 1003.23 1003.44 1003.84 1004.59 1005.56 1007.11 1008.59 1009.74 1010.36 1010.22 1010.69 1009.89 1010.10 1010.01 1010.15 1010.59 1010.50 1010.42 1009.76
1013.21 1012.70 1010.71 1010.78 1012.28 1012.03 1011.73 1010.24 1008.67 1007.05 1006.56 1005.91 1004.46 1003.35 1002.51 1001.93 1001.89 1001.89 1001.74 1001.07 1001.07 1001.87 1003.58 1004.17 1005.32 1005.43 1004.80 1004.30 1003.84 1004.68 1005.52 1006.64 1008.71 1010.05 1010.37 1010.40 1011.37 1010.64 1010.78 1010.37 1010.39 1010.62 1010.51 1010.31 1009.78
1012.79 1012.27 1010.41 1010.43 1010.94 1011.08 1010.61 1009.87 1008.85 1007.41 1006.32 1005.32 1004.28 1002.82 1002.24 1002.14 1002.01 1001.33 1001.26 1000.87 1000.78 1002.07 1003.12 1004.17 1005.51 1005.94 1005.58 1005.15 1004.90 1005.43 1005.94 1006.51 1007.77 1009.05 1010.11 1010.98 1011.92 1011.40 1011.03 1011.15 1011.35 1011.26 1011.06 1010.69 1010.21
1012.86 1012.18 1011.96 1010.01 1009.78 1010.13 1009.99 1009.37 1008.05 1007.00 1005.93 1005.06 1004.35 1003.27 1002.54 1002.12 1002.07 1001.78 1001.71 1001.62 1001.40 1002.17 1002.75 1003.44 1005.60 1006.30 1006.57 1006.29 1006.18 1006.14 1006.32 1006.69 1007.96 1009.62 1011.16 1011.75 1012.55 1012.08 1011.54 1011.34 1011.59 1011.86 1011.49 1011.32 1011.36
1012.40 1011.33 1009.94 1009.59 1009.66 1009.51 1009.23 1008.45 1007.54 1006.80 1005.21 1004.00 1003.25 1002.89 1002.74 1002.48 1002.63 1002.72 1002.54 1002.54 1002.59 1002.98 1003.33 1004.29 1006.36 1006.47 1006.55 1006.27 1006.14 1006.46 1006.80 1007.44 1008.40 1009.32 1010.85 1012.85 1013.03 1013.17 1012.67 1012.42 1012.07 1011.95 1011.76 1011.79 1012.06
1012.11 1011.42 1010.27 1009.66 1009.39 1009.32 1008.77 1007.86 1006.93 1006.04 1005.25 1003.89 1003.00 1002.75 1002.80 1002.80 1002.88 1003.42 1003.69 1003.73 1004.19 1004.16 1004.62 1005.50 1006.87 1007.06 1007.43 1006.93 1006.91 1007.60 1007.84 1009.03 1009.80 1010.58 1011.91 1012.72 1013.69 1013.94 1013.46 1013.17 1012.94 1012.95 1012.73 1012.69 1012.78
1011.68 1011.27 1011.38 1010.24 1009.75 1008.99 1008.22 1007.29 1006.24 1005.46 1004.17 1003.16 1002.57 1002.97 1002.96 1002.92 1003.31 1003.70 1004.15 1004.34 1004.58 1005.12 1005.93 1006.63 1007.57 1008.48 1008.80 1008.13 1008.06 1009.39 1010.40 1010.09 1011.17 1011.81 1012.37 1013.12 1014.32 1014.22 1013.73 1014.02 1014.11 1013.91 1013.66 1013.38 1013.20
Thickness
5710 5713 5717 5722 5727 5732 5738 5746 5753 5756 5760 5768 5775 5782 5788 5795 5802 5804 5810 5837 5839 5839 5835 5830 5824 5824 5823 5816 5825 5823 5778 5760 5779 5782 5797 5825 5806 5834 5845 5828 5827 5825 5821 5820 5818
5705 5710 5713 5720 5725 5728 5735 5742 5749 5755 5759 5764 5770 5778 5784 5791 5797 5807 5841 5843 5842 5839 5830 5821 5813 5817 5805 5813 5816 5802 5770 5783 5803 5811 5805 5824 5814 5832 5829 5821 5816 5816 5822 5820 5818
5703 5707 5710 5715 5721 5727 5733 5738 5746 5751 5757 5763 5766 5774 5781 5787 5794 5821 5844 5842 5842 5840 5836 5830 5823 5814 5800 5811 5813 5809 5789 5810 5817 5822 5830 5828 5818 5842 5827 5811 5821 5814 5816 5816 5815
5700 5703 5707 5712 5715 5721 5729 5735 5743 5748 5754 5759 5764 5771 5778 5782 5772 5830 5839 5839 5837 5836 5830 5825 5817 5802 5796 5797 5814 5799 5815 5814 5823 5834 5837 5827 5831 5829 5838 5834 5836 5830 5829 5821 5814
5692 5695 5700 5706 5710 5715 5723 5732 5740 5746 5749 5754 5760 5767 5775 5774 5788 5830 5832 5833 5833 5830 5822 5817 5810 5805 5795 5804 5809 5804 5813 5820 5828 5834 5843 5848 5834 5829 5830 5840 5835 5830 5824 5817 5812
5683 5686 5692 5697 5702 5709 5717 5725 5736 5742 5747 5752 5757 5760 5765 5757 5821 5825 5826 5826 5826 5824 5821 5817 5815 5817 5810 5807 5803 5818 5817 5820 5832 5835 5841 5832 5829 5834 5823 5837 5828 5823 5817 5817 5813
5680 5685 5688 5692 5696 5701 5711 5720 5731 5737 5744 5751 5753 5757 5759 5774 5818 5817 5819 5820 5826 5824 5818 5823 5823 5814 5812 5800 5819 5816 5806 5821 5834 5842 5842 5838 5812 5813 5833 5835 5822 5820 5821 5816 5815
5671 5674 5681 5686 5689 5695 5704 5713 5727 5739 5742 5752 5752 5755 5753 5808 5812 5809 5813 5816 5824 5826 5824 5829 5826 5813 5811 5817 5809 5802 5803 5785 5827 5838 5847 5827 5786 5818 5836 5833 5823 5820 5824 5823 5818
5670 5674 5678 5681 5685 5690 5700 5711 5728 5736 5740 5746 5746 5750 5751 5805 5797 5814 5813 5808 5815 5817 5820 5827 5821 5806 5811 5788 5772 5779 5768 5786 5805 5839 5835 5821 5792 5820 5832 5828 5818 5823 5829 5830 5824
5665 5667 5669 5672 5677 5686 5695 5711 5733 5732 5736 5739 5746 5736 5765 5776 5801 5807 5813 5810 5802 5804 5800 5804 5790 5780 5776 5767 5744 5765 5774 5788 5791 5829 5826 5812 5805 5815 5819 5824 5825 5823 5826 5829 5828
5658 5661 5665 5668 5672 5676 5686 5698 5710 5715 5731 5726 5734 5737 5765 5781 5801 5799 5805 5798 5797 5789 5768 5782 5763 5756 5770 5777 5783 5782 5779 5776 5799 5817 5814 5809 5811 5812 5815 5819 5817 5822 5822 5833 5834
5652 5654 5657 5661 5666 5672 5674 5678 5698 5712 5709 5739 5747 5751 5769 5769 5759 5784 5805 5776 5774 5756 5767 5759 5750 5776 5781 5782 5778 5774 5769 5775 5796 5812 5802 5808 5804 5811 5817 5827 5831 5835 5839 5840 5839
5643 5645 5648 5653 5661 5668 5673 5687 5709 5709 5697 5736 5753 5755 5763 5766 5760 5770 5789 5776 5765 5751 5753 5744 5767 5785 5776 5772 5771 5771 5763 5772 5781 5803 5812 5812 5789 5792 5808 5819 5827 5833 5845 5848 5848
5632 5634 5637 5642 5650 5656 5668 5688 5698 5708 5675 5717 5746 5763 5769 5771 5756 5786 5791 5775 5759 5747 5751 5751 5777 5772 5770 5767 5771 5751 5790 5795 5793 5780 5759 5802 5747 5785 5798 5809 5816 5826 5832 5840 5849
5619 5621 5625 5627 5633 5643 5668 5680 5694 5697 5643 5743 5750 5786 5774 5758 5764 5775 5794 5774 5750 5754 5753 5753 5770 5765 5762 5779 5785 5778 5803 5797 5797 5779 5774 5775 5755 5785 5797 5791 5807 5819 5829 5840 5848
5605 5607 5610 5617 5621 5634 5651 5669 5678 5646 5642 5730 5757 5753 5749 5755 5761 5771 5770 5778 5776 5752 5758 5758 5780 5770 5777 5793 5797 5808 5792 5773 5764 5753 5730 5767 5757 5758 5792 5815 5824 5832 5833 5843 5846
5589 5592 5596 5603 5612 5622 5637 5646 5628 5624 5708 5729 5739 5750 5745 5740 5745 5750 5748 5741 5732 5717 5725 5751 5759 5783 5796 5781 5791 5779 5748 5713 5720 5717 5726 5764 5758 5773 5807 5824 5832 5840 5839 5850 5850
5568 5573 5582 5593 5592 5601 5612 5620 5616 5672 5690 5730 5739 5739 5733 5739 5737 5743 5737 5728 5741 5740 5722 5720 5724 5770 5793 5781 5771 5771 5750 5711 5708 5706 5726 5765 5753 5772 5802 5818 5823 5817 5809 5803 5800
5545 5552 5564 5584 5574 5578 5584 5596 5634 5670 5704 5704 5721 5719 5723 5738 5740 5734 5730 5734 5748 5743 5718 5724 5733 5778 5785 5791 5781 5762 5739 5764 5729 5729 5718 5738 5764 5793 5793 5798 5800 5797 5798 5790 5791
5533 5542 5565 5566 5565 5564 5568 5599 5642 5684 5695 5701 5691 5728 5711 5727 5724 5725 5726 5749 5748 5756 5757 5741 5722 5766 5782 5793 5784 5767 5772 5734 5711 5707 5703 5725 5728 5721 5753 5762 5766 5771 5768 5770 5781
5520 5536 5565 5561 5553 5550 5568 5601 5651 5679 5683 5685 5690 5698 5719 5723 5734 5723 5731 5756 5763 5762 5756 5747 5734 5742 5767 5757 5754 5753 5743 5738 5727 5712 5697 5696 5702 5746 5740 5745 5749 5745 5750 5754 5762
5507 5523 5547 5551 5533 5550 5571 5612 5645 5659 5676 5681 5695 5702 5717 5730 5727 5727 5733 5755 5776 5770 5743 5750 5725 5718 5742 5762 5773 5760 5751 5737 5702 5718 5712 5706 5698 5737 5740 5743 5746 5749 5749 5753 5758
5498 5518 5539 5546 5533 5552 5587 5607 5630 5646 5663 5678 5686 5716 5726 5722 5720 5736 5745 5766 5775 5762 5745 5748 5716 5701 5718 5737 5752 5743 5750 5745 5727 5717 5717 5699 5687 5731 5739 5736 5736 5740 5743 5746 5750
5494 5511 5515 5546 5567 5571 5584 5600 5622 5651 5662 5679 5685 5702 5716 5718 5725 5730 5735 5753 5766 5762 5760 5756 5719 5713 5695 5716 5730 5734 5743 5744 5724 5701 5699 5697 5695 5713 5724 5729 5731 5730 5735 5735 5733
5505 5521 5541 5543 5556 5573 5586 5606 5620 5630 5663 5685 5691 5701 5706 5706 5714 5717 5729 5743 5751 5752 5755 5743 5714 5729 5732 5737 5742 5740 5743 5743 5731 5729 5702 5692 5691 5697 5708 5715 5721 5725 5729 5727 5720
5511 5521 5532 5546 5561 5571 5581 5598 5619 5635 5652 5671 5692 5699 5706 5706 5716 5708 5718 5723 5723 5740 5738 5730 5707 5725 5713 5727 5729 5719 5715 5716 5717 5714 5702 5697 5683 5696 5706 5707 5709 5710 5714 5712 5709
5518 5525 5530 5545 5560 5574 5587 5608 5629 5644 5665 5685 5695 5694 5697 5712 5716 5718 5720 5721 5726 5725 5719 5717 5704 5691 5694 5712 5716 5686 5691 5704 5697 5697 5698 5683 5684 5690 5696 5694 5691 5695 5699 5698 5696